COSMOS 1275 DEB, 12661

Orbit data source: Space-Track

COSMOS 1275 DEB, 12661 is space debris in LEO originally from a launch on Thu, 04 Jun 1981 UTC launched from the Plesetsk Missile And Space Complex (PKMTR). Debris objects in space refer to the collection of defunct objects orbiting the Earth. Examples of debris include non-operational satellites, rocket bodies, and fragments generated from explosions, collisions, or faulty payload assembly.

Loading next visibility...
Identifier
12661, 1981-053R
Orbit
LEO
Country
Flag of CISCIS
Related business
Manufacturer
Unknown
Mission
Spacecraft
Bus & Motor
Unknown
Mass
Unknown
Launch date (UTC)
1981-06-04 (45 years ago)
Launch vehicle
Unknown
Launch site
Plesetsk Missile And Space Complex (PKMTR)
Object type
Payload
Rocket body
Debris
Shape & HBR
Unknown shape, 0.1 m
Radar Cross Section
Small (<0.1 m²)

Expand to show TLE details & history
Last TLE update: 10 hours ago

TLE from 10 hours ago
0 COSMOS 1275 DEB
1 12661U 81053R   25351.60872471  .00000905  00000-0  93419-3 0  9997
2 12661  82.8001  42.0546 0117607 354.0487 160.2188 13.72015809205101
Epoch: 2025-12-17T14:36Z
TLE epoch observation values (Epoch: 2025-12-17T14:36:33.814Z)
Latitude
25.09687°
Longitude
-86.93707°
Altitude
1,077.067 km
Speed
7.275 km/s
True Right ascension
14h 34m 43s
True Declination
24° 58' 14"
Sunlit
Object was in daylight at epoch
Visualization orbit readout
Latitude
Unknown
Longitude
Unknown
Altitude
Unknown
Speed
Unknown
Apparent Right ascension
Unknown
Apparent Declination
Unknown
Sunlit
N/A
Visualization observer readout
Local Sidereal Time
23:04:15
Azimuth
Unknown
Elevation
Unknown
Doppler factor
Unknown
Orbital elements
Apogee altitude
1,076.149 km
Perigee altitude
902.852 km
Semi-major axis
7,367.638 km
Eccentricity
0.01176
Inclination
82.8001°
RAAN
42.0546°
Arg. of periapsis
354.0487°
True anomaly
160.66866°
Mean anomaly
160.2188°
Eccentric anomaly
160.44435°
Mean motion
3.43203 °/min
Orbital period
104.89 mins
BSTAR
0.00093419
Loading maneuver chart data...
Computing Atmospheric mass density...
Loading historical data...
Loading historical data...
Loading historical data...
Loading historical data...
Loading historical data...
Loading historical data...
Loading historical data...

Documentation

Showing up to 5 results
|